Wind_Speed
4 2 3 5 7 9 10 11 11 12 12 12 12 12 11 11 10 10 10 9 9 9 8 7 8 8 8 9 9 10 10 10 10 10 10 11 10 10 11 11 12 12 12 13 13 14 15 12 10 10 11 12 12 13 15 15 16 15 14 14 15 15 14 17 21 22 20 17 13 8 7 8 9 12 15 15 16 16 14 16 17 14 15 17 13 8 13
3 2 4 6 8 10 11 11 12 12 12 12 12 11 11 10 10 10 9 9 9 8 6 7 8 8 8 9 9 10 10 10 10 10 10 11 10 10 11 11 12 12 12 13 13 13 12 11 12 12 12 13 14 14 15 15 15 15 16 16 16 14 14 15 17 15 12 10 8 7 9 15 17 19 20 19 20 20 18 19 19 16 15 14 11 10 8
2 4 7 9 10 11 11 12 12 12 12 12 11 11 10 10 9 8 9 9 8 6 7 9 9 9 9 9 9 9 10 10 10 10 10 10 10 10 11 11 12 12 12 12 13 12 12 12 13 13 13 14 15 14 14 15 16 17 17 17 16 16 16 16 13 7 5 7 10 12 17 23 24 23 23 24 24 22 20 17 13 11 12 12 16 21 22
5 7 9 10 11 11 11 12 12 12 12 11 10 10 9 9 8 8 9 9 7 7 9 10 9 9 10 10 10 10 10 10 10 10 10 10 10 11 12 12 12 12 12 13 13 13 12 13 13 14 14 14 14 15 16 16 17 17 17 16 16 16 18 19 17 14 13 15 18 21 23 25 25 23 21 20 20 20 20 17 16 17 18 18 23 28 33
7 9 10 11 11 11 11 11 11 11 10 9 9 9 8 8 8 9 9 8 7 9 11 10 10 11 11 10 11 11 11 10 11 11 11 11 11 12 12 11 11 12 13 14 14 13 13 14 15 14 14 15 16 16 17 18 17 16 16 14 14 17 21 21 20 21 20 19 21 22 22 22 21 19 17 17 19 19 19 19 19 19 18 18 20 24 31
9 9 10 10 10 10 10 10 10 9 8 8 8 8 8 9 9 9 10 9 9 11 11 10 11 11 11 11 11 11 11 12 12 12 12 11 12 12 11 12 12 13 14 15 15 15 15 15 15 15 15 16 17 17 18 18 17 15 15 15 16 19 21 21 21 23 20 19 20 19 18 17 17 18 19 20 18 15 15 15 14 14 16 19 25 29 33
8 8 8 9 10 10 9 8 8 7 7 8 8 9 10 10 10 10 11 11 11 12 11 11 12 11 11 11 11 11 12 12 12 12 12 12 12 12 11 12 13 14 14 15 15 15 16 16 16 16 17 17 17 18 18 16 16 17 17 18 17 17 19 21 22 23 22 21 19 16 15 17 20 21 19 14 10 8 11 12 12 15 20 25 31 35 37
6 7 8 8 8 8 7 7 7 7 8 9 10 10 11 12 12 12 11 11 12 11 11 11 11 11 11 11 11 12 12 12 12 12 13 13 12 12 13 13 14 14 14 14 14 15 15 16 16 16 17 17 17 18 18 17 18 19 18 18 16 14 18 19 20 24 25 20 18 18 20 23 23 17 11 7 7 9 10 12 15 20 26 30 33 38 41
6 7 7 7 6 6 6 7 7 8 10 11 12 13 13 13 13 12 11 11 11 11 11 11 11 11 11 11 12 12 12 12 13 13 13 13 13 13 13 13 13 13 13 14 13 14 14 14 15 16 17 18 17 17 18 18 18 18 16 16 14 14 17 17 18 22 24 21 20 22 24 25 18 8 6 6 10 12 13 14 17 24 31 35 35 39 42
5 5 5 5 5 6 7 8 10 11 12 13 13 13 13 12 12 11 10 10 11 11 11 11 11 11 11 11 12 12 13 13 13 13 13 13 13 13 13 13 13 12 12 12 12 12 13 13 15 15 16 17 16 16 16 16 15 14 13 13 14 14 15 17 16 17 21 23 23 24 25 18 6 1 5 10 13 16 18 19 20 24 30 35 38 40 38
3 3 4 5 7 8 9 11 12 13 13 13 12 12 11 11 11 10 10 10 10 11 11 11 11 11 11 11 12 13 13 13 14 13 13 13 13 12 12 12 11 11 11 11 11 12 13 13 14 15 15 15 14 14 14 14 12 11 12 13 15 14 14 16 15 14 20 25 25 24 17 5 2 3 10 13 15 19 24 26 26 26 31 36 36 33 31
3 4 6 8 9 11 11 12 12 12 11 11 11 11 11 11 11 10 10 10 10 11 11 11 11 10 11 12 12 13 13 13 13 13 12 12 11 11 11 10 10 11 11 11 12 12 13 14 14 15 14 13 13 13 12 11 10 11 13 13 13 14 15 16 15 16 21 24 21 14 5 2 7 13 14 13 14 19 27 32 29 30 35 33 24 24 33
5 7 9 10 11 11 10 10 10 11 11 11 11 11 11 11 10 10 10 9 10 10 10 10 10 10 11 12 12 12 12 12 12 11 11 11 10 10 10 10 10 11 11 12 12 12 14 15 15 16 15 13 13 12 10 10 12 13 13 12 14 15 15 16 18 18 17 15 12 7 6 12 15 12 11 13 16 23 31 35 35 36 30 20 19 33 48
8 9 9 9 9 9 10 10 10 10 10 10 10 10 10 10 9 9 9 9 9 9 9 9 10 10 11 11 11 12 12 11 11 10 10 9 9 10 10 9 10 11 12 13 13 14 16 17 17 18 16 13 12 11 10 13 14 13 13 14 15 15 16 17 16 13 11 12 13 13 12 11 8 7 13 20 26 31 34 38 45 37 18 15 33 52 58
8 8 8 8 9 9 9 9 9 9 9 9 9 9 9 9 8 8 8 8 8 9 9 9 9 10 10 10 10 11 11 10 10 9 9 9 9 10 9 9 10 12 14 16 15 16 18 18 18 17 15 14 13 11 13 15 14 13 14 15 15 16 17 15 12 11 12 13 13 11 7 2 2 7 16 22 29 33 36 41 42 26 14 29 52 60 60
8 8 8 8 8 8 8 8 8 8 8 8 8 8 8 8 8 8 8 9 9 9 9 9 9 9 9 9 9 9 9 9 8 8 8 8 9 10 10 10 12 14 17 18 18 18 18 18 17 15 14 14 14 14 15 15 14 15 16 16 17 17 15 13 11 11 12 12 8 5 3 3 6 13 19 24 30 37 39 35 27 21 30 49 60 60 61
8 8 8 8 8 8 8 8 8 8 8 8 8 8 8 8 8 8 9 9 8 8 8 8 8 8 8 8 9 9 8 8 8 7 7 8 9 11 12 13 14 17 20 20 19 18 19 18 17 16 16 15 14 14 14 14 15 17 17 17 18 16 14 13 11 11 13 13 9 8 7 9 13 19 23 29 36 40 33 21 22 39 54 59 58 58 61
8 8 8 8 8 8 8 8 8 8 8 8 8 8 9 9 9 9 9 8 8 8 8 8 8 8 8 8 8 8 7 7 7 6 7 9 10 13 15 16 17 20 21 20 19 19 19 17 16 17 17 16 14 13 12 14 16 16 16 16 15 13 13 12 10 12 15 13 12 13 11 12 17 21 26 35 40 37 25 21 37 56 61 59 58 58 57
8 8 8 9 8 8 9 8 8 8 8 8 9 9 9 9 9 9 8 7 7 7 8 8 8 8 8 8 8 8 6 6 6 6 8 11 13 16 18 18 19 21 21 19 19 20 19 18 18 17 16 14 14 13 13 14 14 13 14 14 12 12 13 11 12 15 15 13 15 15 9 11 19 25 32 39 38 30 29 40 52 56 56 59 60 55 51
9 9 9 9 9 9 9 9 9 9 9 9 10 10 10 9 9 9 8 7 7 8 8 8 7 7 8 8 8 7 6 6 7 8 10 13 15 18 19 19 21 22 20 20 21 21 20 20 19 16 14 14 15 14 14 12 11 11 12 11 10 12 11 10 14 17 14 12 12 9 9 18 29 34 38 39 34 32 41 53 58 56 56 58 56 53 50
9 9 9 9 9 9 10 10 10 10 10 10 10 10 10 9 9 9 8 8 8 8 8 8 7 7 8 8 7 7 6 7 9 10 12 15 17 20 21 21 22 21 21 22 23 22 21 21 20 16 14 15 15 13 12 10 9 10 10 9 10 12 11 11 14 14 12 12 12 10 16 26 32 36 40 40 38 43 50 54 57 59 58 55 54 54 52
10 10 10 10 10 10 10 10 11 11 11 10 10 10 10 9 9 9 9 9 9 9 8 8 8 8 8 8 7 7 8 9 11 12 14 16 19 21 22 22 22 22 23 24 24 24 22 21 20 17 16 15 13 11 10 9 7 8 9 9 8 8 10 12 12 11 14 18 19 19 25 31 35 40 43 43 46 51 53 52 54 54 52 52 53 53 52
10 10 10 10 10 10 11 11 11 11 11 11 11 11 10 10 9 9 9 10 10 9 9 8 8 8 8 8 8 9 11 11 12 14 16 19 21 23 23 22 23 24 26 26 25 24 22 20 19 16 14 12 11 11 11 8 5 5 8 8 7 6 7 11 14 18 20 21 20 25 33 39 42 44 45 48 53 55 55 54 52 50 49 50 51 51 52
10 10 11 11 11 11 11 11 11 11 11 11 11 11 11 11 10 10 10 11 11 10 9 9 9 9 9 10 10 11 12 13 14 16 18 20 23 24 24 24 25 27 27 26 24 22 20 18 16 14 11 10 10 10 9 6 4 5 5 5 6 8 11 15 20 25 27 27 28 35 42 45 47 48 51 55 57 57 55 54 52 51 51 51 51 52 54
11 12 12 12 12 12 12 12 12 12 12 12 12 12 12 12 12 11 11 11 11 10 9 9 10 10 10 11 12 13 13 14 16 18 19 22 24 24 25 27 28 28 27 24 21 19 17 15 13 11 10 10 9 8 7 5 5 6 6 6 10 14 18 23 28 30 33 35 38 44 48 49 50 52 56 58 59 58 56 53 52 52 52 52 53 53 53
13 13 13 13 13 13 13 13 13 12 12 12 12 12 12 12 12 12 11 12 12 10 9 10 11 10 11 13 14 14 14 16 17 19 21 24 25 25 27 29 29 27 24 20 18 16 14 13 12 11 9 8 8 7 6 5 5 6 7 10 15 19 23 29 33 36 39 41 45 50 54 54 53 55 57 57 57 57 56 54 53 53 53 53 53 51 51
13 13 13 13 13 13 13 13 13 13 12 12 12 12 12 12 12 12 12 12 12 11 11 12 12 11 13 14 13 14 15 17 18 20 22 24 26 27 29 28 26 23 20 17 16 15 13 13 12 11 8 7 7 6 6 6 7 8 9 12 18 23 28 32 37 42 44 45 47 49 52 55 58 58 57 56 55 55 55 54 53 52 52 53 52 51 51
12 13 13 13 14 14 13 13 13 13 13 12 12 12 12 12 12 12 12 12 12 12 13 13 12 12 13 12 13 14 16 17 19 21 24 25 27 29 27 25 22 19 17 16 15 14 13 13 12 10 9 8 7 6 6 7 9 9 10 15 21 26 31 36 40 44 46 47 48 47 49 54 57 56 54 53 52 52 52 52 51 51 51 51 52 53 54
13 14 14 14 14 14 14 14 13 13 13 13 13 12 12 12 12 12 12 12 13 13 13 13 13 13 12 12 13 15 16 18 20 23 25 27 28 26 23 21 19 17 16 15 15 14 13 12 11 10 9 8 7 7 7 8 9 10 13 18 24 28 32 37 41 45 46 48 49 49 49 51 52 51 50 50 49 49 50 50 49 50 50 51 53 54 56
14 14 14 14 14 14 14 14 14 14 14 13 13 13 12 12 12 13 13 13 14 14 14 13 13 13 12 13 14 15 17 19 22 24 26 26 25 22 20 19 17 16 15 15 15 13 12 11 11 9 8 8 7 8 8 9 9 11 16 22 27 31 35 40 44 47 49 49 50 49 48 47 47 47 47 47 48 49 49 50 50 51 52 53 54 55 56
15 15 15 14 14 14 14 14 14 14 14 14 13 13 13 12 13 13 13 14 14 14 13 13 12 12 12 13 14 16 19 21 24 25 25 23 21 20 19 17 15 15 15 15 14 12 11 11 11 9 8 8 8 9 10 11 10 13 19 26 31 35 40 44 47 48 47 48 50 49 47 45 46 48 48 48 48 49 49 50 51 52 53 53 53 54 55
15 15 15 14 14 14 14 14 14 14 14 14 13 13 13 13 13 13 13 13 13 13 13 12 12 12 13 14 16 18 20 22 23 23 22 20 19 18 17 15 15 16 16 14 13 12 11 11 11 9 8 8 9 10 12 12 14 20 26 31 36 41 45 47 48 47 46 46 48 50 47 46 47 49 49 49 49 49 50 51 51 52 53 53 53 54 55
16 16 15 14 14 14 13 13 13 13 13 13 12 12 12 12 12 13 13 13 13 12 12 12 12 13 14 15 17 19 20 21 21 20 19 18 17 16 14 15 15 15 14 13 12 11 11 11 10 9 8 9 11 12 12 13 18 25 31 36 41 45 47 47 47 47 46 45 46 48 49 48 48 48 47 47 48 49 50 51 52 52 53 53 54 55 57
17 16 15 15 14 13 13 13 13 13 13 14 13 12 13 13 12 13 14 13 13 12 11 13 13 14 15 17 18 19 19 19 19 18 17 17 15 14 14 15 15 14 12 12 11 12 12 11 10 10 10 12 13 13 14 17 23 30 36 41 45 46 46 47 47 47 46 45 45 46 48 48 48 47 47 47 48 49 50 51 52 53 54 55 56 58 59
18 17 16 15 14 14 14 14 14 14 14 15 14 14 14 13 13 14 14 14 13 12 13 14 15 15 16 16 16 17 17 18 17 17 16 15 14 13 14 14 14 12 11 10 11 12 12 12 11 11 12 14 15 16 18 24 31 38 42 45 46 46 47 48 48 46 45 46 46 46 46 47 47 48 48 48 49 50 51 52 53 54 55 56 58 59 60
19 18 17 16 15 15 15 15 15 16 16 16 16 15 14 14 14 15 15 14 14 14 15 15 15 16 16 16 16 16 16 17 16 15 15 14 13 14 14 13 12 11 9 10 12 13 13 12 11 12 14 16 18 19 23 30 38 42 44 44 45 46 46 46 46 45 45 45 45 45 45 45 46 48 49 50 51 51 53 53 54 55 57 59 60 61 62
19 19 18 17 16 16 16 17 18 17 17 17 17 16 14 14 15 16 15 15 15 16 15 14 14 15 15 16 16 16 16 16 16 15 15 14 14 14 13 13 11 10 8 9 12 14 14 14 13 13 16 17 18 21 28 35 40 42 42 42 43 44 43 43 44 44 44 43 43 44 44 45 47 48 50 51 52 53 54 55 56 57 59 60 62 62 63
20 19 18 18 18 18 18 19 19 19 18 18 18 16 14 15 16 16 16 16 16 15 13 13 13 14 15 17 17 17 16 16 16 15 15 14 14 14 13 12 11 9 7 9 12 15 15 14 14 15 17 18 21 27 34 38 39 40 40 41 41 41 41 41 43 44 44 45 45 45 45 46 47 49 51 53 53 54 54 55 56 57 58 60 61 62 62
21 20 19 19 20 20 19 19 20 19 19 19 17 14 14 15 17 17 17 16 15 13 13 14 15 15 17 18 18 17 17 17 16 16 15 14 14 13 11 10 11 9 7 9 13 15 14 14 15 16 18 21 27 33 37 37 37 38 39 39 38 39 39 41 42 43 44 44 45 46 47 48 49 50 52 53 53 54 54 55 56 57 58 59 60 61 61
23 22 21 21 21 20 19 20 20 19 19 18 15 13 14 16 17 16 15 14 14 14 14 16 17 17 18 19 18 18 18 17 16 15 14 13 13 13 11 10 11 9 7 9 13 14 14 15 16 18 21 27 33 36 37 37 37 37 37 37 38 38 39 40 41 42 42 42 43 45 46 47 49 50 51 52 53 54 55 56 57 57 58 58 59 60 60
25 24 24 23 21 20 20 20 19 19 18 16 14 14 15 16 16 15 14 13 14 15 16 17 17 18 19 19 19 18 17 16 16 15 14 13 14 12 10 11 11 8 7 10 14 14 14 16 18 21 26 32 35 36 37 37 36 36 36 37 38 39 39 40 40 40 41 42 44 45 47 47 48 48 50 51 52 53 55 57 57 57 57 58 58 58 59
25 25 26 24 21 20 20 19 19 18 16 14 14 15 16 15 15 15 14 14 15 16 17 17 18 19 20 20 19 18 17 16 15 14 13 14 13 12 10 11 11 9 9 12 14 14 15 18 21 25 31 34 35 36 37 37 36 36 36 37 38 39 39 40 40 40 42 43 44 46 47 47 47 48 49 50 52 53 54 56 56 56 56 56 56 56 57
26 27 27 24 22 21 21 19 18 17 14 13 15 16 15 15 15 15 15 15 16 17 18 19 20 21 21 20 19 17 16 15 15 14 13 14 13 11 11 12 11 11 12 14 15 16 19 22 25 30 34 34 34 36 37 36 36 35 36 37 38 39 39 39 40 41 42 43 45 46 47 47 48 48 49 50 52 53 54 54 55 55 55 55 55 55 56
26 28 28 24 22 23 22 19 18 18 15 15 17 16 15 15 16 15 15 16 17 17 18 19 20 21 21 19 18 16 15 14 14 14 13 13 12 11 11 12 13 13 14 15 16 19 22 25 29 33 34 34 35 37 37 36 36 36 36 37 38 39 39 39 40 41 43 44 45 46 47 48 48 49 49 50 52 53 54 54 55 54 54 54 54 54 54
27 28 28 25 24 24 23 19 19 19 17 17 17 16 15 15 16 15 15 16 17 18 19 20 21 21 20 18 16 15 14 13 13 13 14 14 13 12 12 14 15 15 15 16 19 23 25 29 32 35 35 36 37 37 37 36 36 37 37 38 38 38 39 39 40 42 44 46 46 47 48 49 49 50 50 51 52 53 54 55 55 54 54 53 53 53 54
27 29 29 26 25 25 23 20 19 18 18 17 17 16 16 16 16 16 17 17 18 19 20 21 21 19 18 16 15 14 13 13 13 14 14 14 13 13 14 15 16 16 17 19 23 26 29 32 34 35 36 37 37 36 36 37 37 37 38 38 38 39 40 40 41 43 45 46 47 47 48 49 49 50 51 52 52 53 54 54 54 53 53 53 53 54 54
27 29 29 26 24 24 23 21 19 18 18 17 17 16 16 16 16 16 17 18 18 20 21 21 19 17 16 15 14 12 12 13 13 14 15 15 15 15 15 15 16 18 20 23 26 29 31 33 34 35 35 36 37 36 37 37 36 37 38 38 39 40 40 41 42 44 45 46 47 47 48 48 49 51 52 52 53 53 54 53 52 52 52 52 52 52 52
27 29 29 27 25 24 23 21 19 18 17 17 16 16 16 16 17 17 18 18 19 20 20 19 18 16 15 14 13 12 12 13 14 15 16 16 15 15 16 16 17 20 22 25 28 30 32 33 34 35 35 36 36 36 36 37 37 37 38 38 39 40 41 42 43 44 45 46 47 47 47 48 49 51 52 53 52 52 53 53 52 52 51 51 51 50 51
28 29 30 29 27 25 23 21 19 18 17 16 16 16 17 17 18 18 18 19 20 20 19 18 16 15 14 14 13 12 11 13 14 15 17 17 16 16 18 19 20 23 25 27 29 31 32 34 35 35 35 35 35 36 36 37 37 37 38 38 39 40 41 42 43 44 45 46 46 47 47 48 49 51 52 53 53 52 52 52 52 51 49 49 49 49 50
28 30 31 30 28 26 23 21 19 18 17 16 16 17 17 18 18 19 19 19 20 19 17 16 15 14 13 13 13 12 12 13 15 17 18 19 19 19 20 21 23 24 26 27 29 31 33 34 35 35 35 35 35 36 36 37 37 37 38 38 39 40 41 42 43 44 44 45 46 46 47 48 49 51 52 53 53 52 50 50 50 49 48 48 48 49 50
30 32 32 31 29 26 23 21 19 18 17 17 17 17 18 18 19 19 19 20 19 18 16 15 15 13 12 13 13 13 13 14 16 18 19 20 21 21 22 23 24 26 27 28 29 31 32 34 35 36 36 36 36 36 36 36 36 37 37 38 38 39 41 42 44 44 44 45 45 46 47 48 49 50 51 52 52 51 49 49 49 50 49 49 49 49 49
31 32 32 31 29 26 23 20 19 18 17 17 18 18 18 19 19 19 19 20 19 17 15 15 14 13 12 13 13 14 14 15 17 19 21 22 22 23 24 25 26 28 29 29 30 31 32 34 35 36 37 36 36 36 37 36 36 36 37 37 38 39 41 43 44 44 44 44 45 46 47 48 49 50 50 51 51 51 51 50 50 50 50 49 48 47 47
Wind_Direction
226 258 311 330 339 337 329 322 321 324 325 323 322 321 323 325 325 326 327 327 327 325 324 327 331 331 329 327 325 322 322 320 320 322 321 321 320 318 317 315 314 313 312 312 312 314 315 314 311 309 310 311 308 307 309 309 310 312 312 312 312 308 297 290 296 305 309 312 312 304 295 296 300 303 302 299 295 290 280 277 281 273 258 262 269 261 275
227 274 311 324 329 325 322 321 323 324 323 321 321 323 325 325 325 327 329 329 329 327 332 337 336 335 335 333 329 328 328 327 327 326 325 322 320 319 318 316 314 313 312 310 312 316 315 308 308 310 309 310 311 310 310 309 310 311 311 310 309 303 293 293 302 312 319 324 327 323 310 308 307 305 304 301 298 297 292 284 280 272 259 253 256 260 265
275 306 317 320 319 318 318 321 322 322 321 322 324 326 328 327 329 331 332 331 331 334 339 337 334 334 335 333 331 329 329 329 328 327 325 321 319 318 316 315 314 312 310 310 312 314 309 304 306 311 311 311 312 311 311 310 310 310 309 308 305 297 291 292 294 294 298 307 308 307 306 306 306 305 305 304 302 298 294 288 273 261 261 244 242 262 278
297 307 311 311 311 313 316 320 321 320 322 325 327 329 331 333 335 335 334 334 333 332 334 333 331 333 335 334 331 328 328 329 326 326 324 320 318 318 316 316 314 313 313 313 314 315 311 305 307 312 312 311 312 312 311 310 310 309 308 307 305 299 298 300 293 280 283 293 295 296 299 300 301 304 306 303 299 294 291 283 264 265 277 266 261 279 294
293 298 300 302 307 313 318 320 320 322 326 329 330 331 334 338 339 337 337 338 331 327 329 330 329 331 333 333 330 327 328 328 326 325 323 321 319 319 318 317 316 315 316 316 316 317 314 310 311 314 313 312 313 312 312 312 311 311 310 309 307 304 304 307 303 296 298 301 301 300 299 297 299 304 305 299 292 286 280 275 276 285 285 276 286 303 306
285 289 294 301 310 316 319 320 322 326 330 331 333 335 338 341 340 337 336 333 326 324 326 328 328 329 331 331 328 327 326 327 326 325 323 323 321 321 321 319 318 319 317 317 318 317 315 315 316 316 315 315 315 315 315 315 314 315 314 311 312 308 305 308 309 307 309 311 310 308 303 303 307 307 302 297 290 284 280 281 294 299 283 286 309 315 309
282 291 300 308 314 318 321 323 327 331 332 332 335 336 335 336 334 332 330 326 322 322 324 327 328 329 331 331 329 328 328 328 328 327 325 325 324 324 324 322 321 322 319 319 319 317 316 318 318 318 318 319 318 317 317 316 315 317 314 312 314 307 303 310 312 309 313 317 317 316 314 314 314 309 303 298 289 286 289 293 303 304 301 311 321 319 315
294 302 309 313 317 323 326 327 328 330 329 329 329 330 330 330 329 327 327 324 321 322 325 328 329 331 333 333 331 330 331 331 331 329 328 328 328 327 326 326 325 324 321 320 320 317 318 319 319 320 320 320 321 318 316 315 314 314 313 312 312 304 302 311 314 310 315 323 324 322 319 317 314 306 290 288 304 310 307 305 309 315 319 323 324 321 320
304 309 314 318 323 328 327 325 324 324 323 322 322 324 326 326 325 326 326 325 322 325 329 331 334 335 334 334 333 332 333 334 333 332 331 330 330 329 328 327 326 324 322 322 321 321 322 322 321 322 321 320 320 316 312 312 311 311 313 313 314 311 308 314 318 312 314 323 324 321 318 315 312 294 257 289 324 328 323 319 320 324 327 327 325 322 319
312 317 321 324 326 325 321 319 319 319 319 319 321 323 325 326 327 328 330 329 327 330 333 335 336 336 336 335 334 334 335 335 335 335 334 332 331 330 329 328 327 327 326 326 328 328 328 327 325 324 323 320 318 314 310 311 311 313 318 318 319 319 314 317 319 310 310 318 322 320 318 314 310 232 283 308 323 325 324 322 318 321 327 326 321 317 318
328 330 328 324 320 319 318 316 317 320 321 323 326 329 330 331 332 333 333 332 331 332 335 337 338 337 337 337 337 336 337 338 337 336 336 334 332 331 332 333 334 336 336 336 337 335 333 332 329 327 325 321 318 316 312 311 314 319 323 321 320 321 318 319 318 303 305 316 322 321 317 305 167 280 293 305 317 324 327 325 320 321 323 321 316 316 321
341 332 324 319 316 317 319 321 323 327 329 332 335 334 334 335 335 335 336 335 334 336 338 339 340 341 340 340 341 341 341 341 340 340 339 337 337 339 342 345 346 346 346 345 343 340 337 335 331 330 329 324 320 317 313 314 319 321 322 319 319 321 321 321 318 305 306 317 328 334 328 291 306 297 289 297 308 315 318 316 317 324 323 317 316 319 321
328 321 319 320 321 325 331 334 336 337 337 338 337 335 335 336 337 338 339 340 340 340 342 343 344 346 346 346 347 346 345 346 345 345 345 346 349 353 353 355 355 353 352 349 344 341 338 334 330 330 330 326 323 320 314 316 321 321 322 321 321 324 324 322 319 310 308 317 330 335 310 305 303 291 287 300 307 317 320 316 320 329 326 316 320 321 321
323 324 328 333 337 340 342 341 340 339 338 339 339 339 340 342 342 343 345 347 347 346 349 350 351 352 351 350 351 349 349 352 353 353 356 359 2 1 360 0 0 358 354 349 342 338 337 335 332 331 331 330 329 322 314 318 321 320 321 322 322 323 322 322 318 311 309 310 309 311 310 301 293 310 331 332 332 335 332 323 324 329 325 312 322 323 324
336 342 346 347 344 342 341 340 342 343 345 347 348 349 350 350 350 351 353 355 356 355 356 357 356 355 354 353 355 355 356 360 2 3 5 8 7 4 3 2 359 355 351 346 340 337 337 336 334 333 333 331 329 322 318 321 320 318 320 321 322 323 324 324 318 309 312 314 313 317 319 266 255 321 330 332 332 334 330 323 323 324 314 318 324 325 326
353 352 349 347 345 347 350 352 356 358 0 2 1 359 359 358 357 359 360 0 1 1 1 0 358 356 357 360 2 3 4 6 7 7 10 13 11 7 2 355 350 348 346 344 340 337 337 337 334 332 331 329 326 321 319 321 319 318 319 321 324 326 327 327 324 317 319 321 316 310 305 287 295 307 317 325 326 327 326 322 317 311 315 323 326 327 326
356 354 355 357 1 7 9 10 11 10 11 10 8 6 5 2 1 3 3 2 3 3 2 0 0 1 5 8 8 6 7 7 8 13 16 14 8 1 355 347 343 343 343 342 340 338 339 339 336 332 330 328 325 319 317 318 318 318 320 324 328 330 330 330 334 332 327 322 308 299 301 294 291 301 316 322 323 325 327 322 311 315 322 326 327 325 324
8 11 13 15 19 20 19 18 15 13 13 11 10 9 6 3 3 3 3 4 3 3 3 3 6 8 9 9 7 5 5 5 8 12 9 3 357 353 350 346 342 342 342 342 341 340 339 339 337 332 328 327 326 320 316 317 316 316 322 326 327 329 331 333 336 333 331 325 311 306 303 286 287 304 316 319 321 327 329 318 315 320 325 326 325 323 325
23 24 25 24 24 21 18 17 14 12 11 10 10 9 5 3 4 3 3 4 4 3 5 8 9 8 6 5 4 2 2 3 2 359 355 352 349 347 346 344 341 341 342 343 342 340 338 337 335 330 324 322 322 318 316 318 315 317 325 328 330 336 338 341 343 337 334 327 314 311 307 294 300 313 320 323 329 332 324 319 321 322 323 324 324 325 327
30 30 28 25 22 19 16 13 10 8 7 7 7 6 3 2 3 2 1 2 3 4 4 4 3 2 1 1 359 358 357 354 349 346 346 346 345 345 345 343 341 341 342 342 341 339 336 333 331 328 319 314 316 316 317 315 312 319 329 330 334 340 342 349 350 343 337 331 325 325 319 309 311 320 325 329 334 331 323 322 324 323 322 324 325 326 325
30 27 25 21 18 15 12 7 5 3 2 3 2 0 360 359 360 359 358 356 358 358 357 357 357 357 356 354 352 349 342 337 336 336 339 342 343 344 344 343 341 341 341 340 338 335 332 327 325 323 314 310 314 315 313 308 305 316 326 325 330 342 349 352 351 346 338 326 319 313 306 307 315 325 328 328 331 329 325 324 324 323 324 326 325 324 323
26 21 17 14 10 8 5 1 359 358 358 359 358 356 355 354 354 355 354 352 351 350 350 351 349 348 347 344 340 333 327 326 327 331 336 340 342 342 342 341 340 339 338 336 333 330 327 323 321 319 314 313 315 312 309 306 297 305 319 326 332 347 354 349 339 331 324 315 309 308 308 310 317 324 324 325 327 327 326 326 327 327 327 326 325 323 323
17 12 8 5 2 1 359 356 355 355 355 355 354 353 351 349 350 352 351 349 348 345 343 343 343 340 337 332 326 322 320 320 323 327 333 337 339 338 338 338 337 336 334 332 329 326 323 320 318 317 316 317 314 310 310 308 293 302 322 335 334 324 329 331 321 314 316 314 309 310 311 313 318 321 322 325 327 327 329 331 330 329 327 326 325 324 324
7 4 2 360 357 356 354 353 352 352 352 352 351 350 349 348 348 349 349 348 347 343 338 338 337 332 326 321 318 316 316 318 322 326 330 333 335 335 335 335 334 333 331 329 328 325 323 321 320 318 318 318 313 306 302 299 310 317 307 312 321 307 303 313 315 315 320 321 317 315 316 318 321 324 326 329 330 331 333 333 331 330 329 328 327 327 326
2 359 356 353 351 350 350 349 348 348 348 348 348 348 348 347 346 346 346 345 344 340 334 333 331 326 319 316 315 314 315 318 322 325 327 329 331 331 332 332 331 330 330 329 328 327 326 325 325 321 318 321 320 310 294 292 316 313 293 311 329 320 315 321 322 321 324 325 321 320 322 324 325 328 332 333 333 332 333 332 332 331 329 328 328 328 328
354 351 348 345 344 343 342 341 342 343 344 344 344 345 346 345 343 342 342 342 341 337 331 330 328 322 317 316 315 314 316 318 320 322 324 326 328 329 330 330 329 330 331 332 332 333 333 332 331 327 323 327 329 315 296 293 299 291 296 327 334 326 323 327 325 323 326 328 327 325 326 327 329 331 334 335 333 331 331 332 332 330 328 327 328 328 328
352 350 347 345 342 340 338 337 336 336 337 338 339 340 341 340 339 337 338 339 337 333 331 329 326 320 317 316 315 314 315 316 317 320 322 325 327 328 329 330 331 333 336 338 339 341 341 338 338 337 337 340 338 321 302 298 292 283 294 318 325 324 326 329 328 328 331 333 332 330 328 328 330 332 333 332 331 330 331 331 330 328 328 328 328 328 328
359 357 354 352 350 347 345 342 340 337 336 334 333 335 335 335 333 332 333 335 333 330 329 327 323 319 317 315 313 313 313 313 316 320 323 326 328 329 330 332 335 339 342 345 346 347 346 346 349 349 348 345 336 318 303 297 290 287 302 320 328 330 333 334 333 332 332 332 333 332 330 329 330 331 330 330 330 330 330 329 329 329 329 330 330 330 330
5 2 360 358 357 355 353 351 348 345 342 338 335 334 332 330 329 327 327 328 328 327 327 324 322 321 318 314 313 312 311 313 318 321 324 327 329 331 333 337 340 344 348 350 352 354 356 359 1 359 355 349 331 311 298 295 297 306 319 327 331 332 332 333 332 330 330 331 331 331 330 329 329 329 329 329 329 330 330 330 331 331 331 332 332 332 332
6 4 2 1 360 358 356 354 352 349 347 344 340 336 333 331 328 325 324 325 325 325 325 323 322 321 318 315 314 313 313 316 320 323 326 328 330 334 338 342 345 349 352 354 358 4 9 10 10 7 1 351 331 308 295 295 306 320 325 326 326 328 329 330 330 329 330 330 329 328 329 329 329 329 330 330 331 332 333 333 333 333 334 334 334 333 332
6 4 3 2 0 359 357 356 354 353 351 348 346 343 339 337 334 330 327 326 326 326 325 323 321 320 318 316 316 316 317 320 322 325 328 331 335 339 343 347 350 352 354 359 5 11 15 15 13 9 0 347 328 307 295 293 299 309 317 321 324 326 327 328 329 330 331 330 328 327 329 332 332 333 333 334 334 335 336 335 334 334 335 335 334 332 331
7 5 3 2 1 360 359 358 357 357 355 353 352 350 347 342 339 336 333 331 330 328 327 324 321 319 318 318 319 320 321 323 326 329 332 336 340 344 347 352 354 354 357 3 9 13 16 15 11 3 352 340 324 305 294 294 304 315 321 325 326 328 329 330 330 331 333 332 330 329 332 335 336 335 335 336 337 336 335 334 334 335 335 333 332 331 332
7 5 3 2 2 1 0 360 360 359 358 355 353 352 349 345 342 340 338 335 333 331 328 324 320 318 320 321 321 323 325 327 330 334 337 341 346 349 353 355 355 355 359 5 10 14 14 11 4 354 343 333 323 309 300 305 317 324 327 327 327 329 331 332 332 332 334 335 335 335 336 337 337 336 335 336 335 334 334 334 334 334 333 332 332 332 333
6 4 3 3 2 1 1 1 359 358 356 353 350 348 346 345 343 342 340 337 335 332 327 323 321 321 323 325 326 328 330 333 336 340 344 347 350 352 353 353 354 356 0 6 11 13 11 6 356 343 334 328 320 312 312 319 325 328 329 329 330 332 333 333 333 335 337 339 339 338 337 336 335 335 335 335 334 334 334 334 335 335 334 334 334 334 335
6 5 4 4 3 2 1 359 356 353 351 349 346 343 342 342 342 341 339 336 333 329 325 322 322 325 327 329 332 334 336 339 342 346 349 351 351 351 351 353 355 357 1 8 12 11 8 0 346 330 325 325 322 322 327 330 331 332 333 333 334 334 334 334 335 337 339 340 339 338 336 335 335 336 335 335 335 335 335 336 336 336 336 336 336 336 336
8 7 5 4 3 0 358 355 352 349 348 347 343 339 337 339 339 338 336 334 331 328 326 326 329 333 336 338 341 342 343 346 349 350 351 352 352 350 351 354 357 358 2 8 10 6 359 350 338 326 323 325 328 332 334 333 332 334 335 336 336 335 335 335 336 337 339 339 338 337 335 335 335 336 336 336 337 337 337 337 338 338 337 338 338 338 338
11 9 6 5 1 357 353 351 350 347 345 344 342 337 335 336 337 336 334 332 330 329 331 333 337 342 344 346 348 348 349 352 352 351 351 352 352 351 352 356 358 358 359 2 3 359 352 345 337 328 325 328 333 336 334 333 334 336 337 336 335 334 335 335 336 336 337 337 337 336 336 336 337 337 337 338 338 339 339 339 340 340 340 339 339 338 338
12 10 7 3 358 353 349 348 347 345 343 342 340 335 333 335 335 333 332 331 332 335 339 342 346 349 351 351 351 352 352 352 351 350 351 352 352 351 353 355 356 355 354 356 355 352 348 345 337 328 329 335 339 337 334 334 336 338 336 335 334 335 335 336 336 336 337 337 337 337 338 337 338 338 338 339 339 339 339 340 340 341 340 340 339 338 338
11 9 5 0 355 351 347 345 345 344 342 340 338 335 332 333 333 333 334 336 341 345 348 350 352 355 355 353 353 352 352 351 350 350 350 351 353 354 355 356 355 351 348 352 352 349 346 344 337 329 332 338 338 336 335 336 338 338 336 335 335 336 336 337 337 338 338 338 338 338 338 339 339 339 339 339 339 339 339 340 341 341 340 339 338 338 337
9 6 2 358 354 350 346 344 344 343 341 339 338 334 331 330 332 336 341 345 349 351 353 355 356 355 354 354 352 350 350 350 349 349 350 351 353 355 355 356 356 351 341 345 348 346 343 341 336 329 333 338 339 336 335 337 339 338 336 335 336 337 338 338 338 338 338 337 337 338 340 340 340 340 339 338 339 339 340 340 341 340 340 339 339 338 338
8 5 1 357 354 351 347 345 344 342 341 340 337 332 331 333 338 344 349 351 353 353 354 354 354 352 352 351 349 348 349 349 349 350 352 352 352 354 354 355 357 354 342 342 344 341 337 335 331 329 335 340 339 336 335 338 339 338 337 337 338 338 338 338 338 337 336 337 338 340 341 341 340 339 339 339 340 340 340 340 340 340 339 339 339 339 338
8 5 1 357 356 354 350 346 345 344 342 340 337 334 336 341 347 350 352 352 353 352 351 351 350 349 349 348 347 346 348 350 351 351 352 352 353 353 352 354 357 353 344 344 343 336 332 331 329 332 338 341 338 336 336 339 340 340 339 338 337 337 338 338 338 337 337 338 340 341 340 340 339 340 340 340 341 341 340 340 339 340 340 340 340 339 339
7 5 2 359 358 356 351 348 348 349 346 341 340 342 345 348 351 351 351 351 351 350 349 348 347 346 346 345 345 345 347 350 352 353 353 352 353 353 353 354 353 349 345 345 341 334 331 332 333 336 339 340 338 337 338 340 340 339 339 338 337 337 338 338 337 336 337 339 340 341 340 339 340 341 342 341 341 341 340 339 340 340 341 340 340 340 340
7 6 4 1 0 358 354 350 351 352 350 346 347 349 349 350 351 351 350 348 347 347 347 346 344 343 343 343 344 345 347 350 352 353 354 354 354 355 354 352 349 348 347 344 339 334 334 334 335 337 339 340 339 339 339 339 339 339 339 339 337 336 336 337 337 337 338 340 341 340 340 340 341 342 342 342 341 341 340 340 341 341 342 341 341 341 341
6 5 5 3 2 0 358 354 353 353 351 350 351 352 350 349 349 348 348 347 346 345 345 344 342 340 341 343 344 345 347 349 351 353 355 356 356 356 354 351 349 347 344 340 337 336 335 335 336 338 340 341 340 339 338 339 339 340 339 338 336 335 336 337 338 338 340 341 341 340 340 341 341 342 342 342 341 341 341 341 342 342 342 342 341 341 342
5 5 5 4 2 1 360 356 353 352 351 351 351 350 349 348 347 346 346 347 346 343 342 341 340 340 342 344 343 343 346 349 352 355 358 359 358 355 353 352 350 346 342 339 339 337 335 335 338 340 340 340 339 338 338 339 340 339 337 336 335 335 337 338 339 340 340 341 341 341 341 342 341 342 342 342 342 342 342 342 342 342 342 342 342 343 344
4 4 5 5 3 1 359 357 354 352 351 350 350 349 348 347 345 344 345 345 344 342 341 340 340 341 343 343 342 342 346 351 355 356 359 0 360 357 354 352 350 346 341 339 338 336 334 335 338 339 339 339 338 337 338 338 338 337 336 336 335 336 337 339 340 340 340 340 341 341 341 342 342 342 342 342 343 343 342 342 342 342 343 343 344 344 344
3 3 5 5 4 0 358 357 355 353 352 350 349 348 347 345 344 344 344 344 342 341 340 340 341 342 342 343 343 343 347 352 356 358 359 0 0 358 355 351 347 344 341 338 335 334 333 335 338 339 339 338 338 337 337 338 337 336 336 336 335 336 337 339 340 340 340 340 341 341 341 342 343 343 342 342 343 343 343 342 343 343 343 344 344 344 343
1 3 4 5 3 0 359 358 356 354 352 350 348 346 345 345 345 344 343 342 341 340 339 339 341 341 341 343 346 347 349 353 355 357 359 0 359 357 354 350 346 343 341 337 335 334 334 335 337 338 337 337 337 337 337 337 336 336 336 335 335 336 337 339 339 340 340 341 341 341 342 343 343 343 343 343 343 343 343 343 342 342 343 344 345 345 345
360 2 4 4 3 1 359 358 356 354 351 348 346 345 345 344 343 343 342 341 340 339 338 339 340 341 342 347 351 350 351 353 355 356 358 358 356 353 352 349 345 341 339 337 335 334 334 335 335 335 337 338 339 338 337 336 336 335 335 335 335 336 337 337 339 340 341 341 341 341 342 343 343 343 343 343 343 343 343 342 342 343 345 346 347 347 347
359 2 3 3 2 1 359 358 356 353 350 347 345 344 343 341 340 340 340 339 339 338 337 339 341 343 346 352 355 353 351 353 355 355 355 354 351 350 350 348 344 341 340 339 336 334 334 334 334 336 338 340 339 337 336 335 335 334 334 334 335 336 336 337 339 340 341 341 341 342 343 344 344 344 344 343 342 343 343 343 343 345 346 347 348 349 349
360 2 2 2 1 360 359 357 355 352 348 345 342 340 339 338 338 338 338 338 338 338 337 338 341 345 349 353 354 355 354 354 353 351 351 350 348 347 347 347 345 343 341 339 336 334 333 334 335 337 339 339 338 336 336 335 334 333 333 334 335 336 336 338 339 340 340 341 342 343 343 344 344 344 343 343 342 342 343 345 346 346 347 347 349 350 351
Height
3172 3172 3172 3172 3172 3171 3171 3170 3170 3169 3168 3167 3166 3165 3164 3163 3162 3161 3160 3159 3159 3158 3157 3156 3156 3155 3154 3153 3153 3152 3151 3150 3149 3148 3147 3146 3145 3144 3143 3143 3142 3141 3140 3139 3139 3138 3136 3135 3134 3134 3133 3132 3132 3130 3129 3128 3127 3126 3125 3124 3123 3121 3119 3116 3114 3113 3112 3111 3110 3109 3109 3109 3109 3108 3108 3107 3106 3105 3106 3103 3100 3099 3095 3094 3093 3084 3073
3171 3172 3172 3172 3171 3171 3170 3170 3169 3168 3167 3166 3165 3165 3164 3163 3162 3161 3160 3159 3158 3157 3157 3156 3155 3154 3154 3153 3152 3151 3150 3149 3148 3147 3146 3145 3144 3143 3143 3142 3141 3140 3139 3138 3138 3137 3136 3134 3133 3133 3132 3131 3130 3129 3128 3127 3125 3124 3123 3122 3121 3120 3117 3115 3113 3111 3110 3109 3108 3107 3107 3107 3106 3106 3105 3104 3103 3103 3101 3099 3098 3095 3090 3091 3089 3078 3071
3171 3171 3171 3171 3171 3170 3170 3169 3168 3167 3166 3166 3165 3164 3163 3162 3161 3160 3159 3158 3158 3157 3156 3155 3155 3154 3153 3152 3151 3150 3149 3148 3147 3146 3145 3144 3143 3142 3142 3141 3140 3139 3138 3137 3137 3136 3135 3133 3132 3132 3131 3129 3128 3127 3126 3125 3124 3123 3122 3120 3119 3118 3116 3115 3114 3113 3112 3110 3108 3107 3106 3105 3104 3103 3102 3101 3100 3099 3098 3096 3096 3091 3085 3086 3084 3075 3070
3171 3171 3171 3170 3170 3170 3169 3168 3167 3166 3166 3165 3164 3163 3162 3161 3160 3160 3159 3158 3157 3156 3156 3155 3154 3153 3152 3151 3150 3149 3148 3147 3146 3145 3144 3143 3142 3142 3141 3140 3139 3138 3137 3136 3135 3134 3134 3132 3131 3130 3129 3128 3127 3126 3125 3123 3122 3121 3120 3118 3117 3115 3114 3113 3113 3112 3112 3110 3108 3107 3105 3103 3101 3100 3099 3098 3096 3095 3095 3093 3091 3088 3084 3080 3078 3074 3070
3170 3170 3170 3170 3169 3169 3168 3167 3167 3166 3165 3164 3163 3163 3162 3161 3160 3159 3158 3157 3156 3156 3155 3154 3153 3152 3151 3150 3149 3148 3147 3146 3145 3144 3143 3142 3141 3140 3140 3139 3138 3137 3136 3135 3134 3133 3132 3131 3130 3129 3128 3126 3125 3124 3123 3121 3120 3119 3118 3117 3116 3114 3112 3111 3110 3108 3108 3107 3106 3104 3103 3101 3099 3098 3097 3095 3093 3092 3091 3090 3087 3086 3083 3076 3073 3075 3070
3170 3170 3169 3169 3168 3168 3167 3167 3166 3165 3164 3164 3163 3162 3161 3160 3159 3159 3158 3157 3156 3155 3154 3153 3152 3151 3150 3149 3148 3147 3146 3145 3144 3143 3142 3141 3140 3139 3138 3137 3136 3136 3134 3133 3132 3131 3130 3129 3128 3127 3126 3125 3123 3122 3121 3119 3118 3117 3116 3115 3114 3112 3109 3108 3107 3105 3105 3104 3103 3101 3099 3098 3096 3095 3093 3091 3090 3089 3088 3087 3085 3084 3082 3076 3072 3072 3068
3169 3169 3169 3168 3167 3167 3167 3166 3165 3165 3164 3163 3162 3162 3161 3160 3159 3158 3157 3156 3155 3154 3153 3152 3151 3150 3149 3148 3147 3146 3145 3144 3143 3142 3141 3140 3139 3138 3137 3136 3135 3134 3133 3132 3131 3129 3128 3127 3126 3125 3124 3123 3122 3120 3119 3118 3116 3115 3114 3113 3112 3111 3108 3106 3104 3102 3102 3102 3100 3098 3097 3095 3094 3092 3090 3088 3088 3087 3086 3085 3084 3082 3079 3075 3072 3068 3064
3169 3168 3168 3167 3167 3167 3166 3166 3165 3164 3164 3163 3162 3161 3160 3159 3158 3157 3157 3155 3154 3153 3152 3151 3150 3149 3148 3147 3146 3145 3144 3143 3142 3141 3140 3139 3138 3137 3136 3135 3134 3133 3132 3131 3129 3128 3127 3126 3125 3124 3123 3122 3120 3119 3117 3116 3114 3113 3112 3111 3110 3109 3106 3105 3103 3100 3099 3099 3098 3096 3094 3092 3091 3089 3088 3087 3086 3085 3085 3084 3082 3079 3076 3073 3070 3064 3060
3168 3168 3167 3167 3167 3166 3166 3165 3165 3164 3163 3162 3161 3160 3159 3158 3157 3156 3156 3155 3153 3152 3151 3150 3149 3148 3147 3146 3145 3144 3143 3142 3141 3140 3139 3138 3137 3136 3135 3134 3133 3132 3130 3129 3128 3127 3126 3125 3124 3123 3121 3120 3119 3117 3116 3114 3113 3111 3110 3109 3108 3107 3105 3104 3103 3099 3097 3097 3095 3094 3091 3089 3088 3087 3086 3085 3085 3084 3083 3082 3080 3077 3073 3069 3066 3062 3058
3168 3168 3167 3167 3166 3166 3166 3165 3164 3163 3162 3161 3160 3159 3158 3157 3156 3156 3155 3154 3152 3151 3151 3150 3148 3147 3146 3145 3144 3143 3142 3141 3140 3139 3138 3137 3136 3135 3134 3133 3132 3131 3129 3128 3127 3126 3125 3124 3123 3122 3120 3119 3117 3116 3114 3113 3111 3110 3109 3108 3107 3106 3104 3102 3102 3099 3095 3094 3093 3091 3089 3087 3086 3086 3085 3084 3083 3082 3081 3080 3079 3077 3072 3067 3063 3059 3056
3168 3168 3167 3167 3166 3166 3165 3164 3163 3162 3161 3160 3159 3158 3157 3156 3156 3155 3154 3153 3152 3151 3150 3149 3148 3147 3145 3144 3143 3142 3141 3140 3139 3138 3137 3136 3135 3134 3133 3132 3131 3130 3129 3127 3127 3126 3124 3123 3122 3121 3119 3117 3116 3114 3113 3112 3110 3109 3108 3107 3105 3105 3103 3101 3101 3098 3094 3092 3091 3089 3086 3085 3085 3085 3084 3083 3082 3080 3078 3076 3076 3075 3071 3067 3062 3058 3055
3168 3168 3167 3167 3166 3165 3164 3163 3162 3161 3160 3159 3158 3157 3157 3156 3155 3154 3153 3152 3151 3150 3149 3148 3147 3146 3145 3144 3143 3141 3140 3139 3138 3137 3136 3135 3134 3133 3132 3131 3130 3129 3128 3127 3126 3125 3124 3123 3121 3119 3118 3116 3115 3113 3112 3110 3110 3108 3107 3106 3105 3103 3102 3100 3099 3096 3092 3090 3089 3087 3085 3085 3086 3084 3083 3082 3080 3078 3075 3072 3072 3072 3067 3063 3060 3057 3054
3168 3168 3167 3166 3165 3164 3163 3162 3161 3161 3160 3159 3158 3157 3156 3155 3154 3153 3152 3151 3150 3149 3148 3147 3146 3145 3144 3143 3142 3141 3140 3139 3138 3137 3135 3134 3133 3133 3132 3131 3130 3129 3128 3127 3126 3125 3123 3121 3120 3118 3117 3115 3113 3112 3111 3110 3109 3107 3106 3105 3104 3102 3101 3099 3097 3095 3092 3090 3090 3089 3087 3085 3084 3082 3081 3079 3078 3076 3071 3066 3066 3067 3063 3058 3056 3053 3049
3168 3167 3166 3165 3164 3164 3163 3162 3161 3160 3159 3158 3157 3156 3156 3155 3154 3153 3152 3151 3150 3149 3148 3147 3146 3145 3143 3142 3142 3140 3139 3138 3137 3136 3135 3134 3133 3132 3131 3131 3130 3129 3128 3127 3125 3124 3122 3120 3118 3117 3115 3114 3112 3111 3110 3109 3107 3106 3105 3104 3102 3101 3100 3098 3096 3094 3092 3090 3089 3088 3086 3084 3082 3081 3080 3078 3075 3074 3070 3063 3060 3061 3059 3055 3052 3047 3042
3167 3166 3166 3165 3164 3163 3162 3162 3161 3160 3159 3158 3157 3156 3155 3154 3153 3152 3151 3150 3149 3148 3147 3146 3145 3144 3143 3142 3141 3140 3139 3138 3137 3136 3135 3134 3133 3133 3132 3131 3130 3128 3127 3126 3124 3123 3121 3119 3117 3115 3114 3112 3111 3110 3109 3107 3106 3105 3103 3102 3101 3100 3098 3097 3096 3094 3092 3091 3088 3085 3083 3083 3082 3081 3080 3078 3075 3073 3070 3063 3058 3057 3056 3053 3048 3042 3035
3167 3166 3165 3165 3164 3163 3162 3161 3160 3159 3158 3157 3156 3156 3155 3154 3153 3152 3151 3150 3149 3148 3147 3146 3145 3144 3143 3142 3141 3140 3139 3138 3137 3136 3135 3135 3134 3133 3132 3130 3129 3128 3127 3125 3123 3122 3120 3118 3116 3115 3113 3112 3111 3109 3107 3106 3105 3103 3102 3101 3100 3098 3097 3096 3095 3093 3092 3091 3090 3087 3085 3082 3081 3079 3077 3076 3073 3070 3067 3062 3057 3055 3053 3049 3043 3037 3031
3167 3166 3165 3164 3163 3162 3162 3161 3160 3159 3158 3157 3156 3155 3155 3154 3153 3152 3151 3149 3149 3148 3147 3146 3145 3144 3143 3142 3141 3140 3139 3138 3137 3136 3135 3135 3134 3132 3131 3130 3129 3127 3126 3124 3122 3120 3119 3117 3115 3114 3112 3111 3109 3108 3106 3105 3103 3102 3100 3099 3098 3097 3096 3095 3094 3093 3092 3091 3090 3088 3086 3083 3080 3077 3075 3073 3070 3068 3065 3061 3055 3050 3047 3044 3038 3032 3026
3167 3166 3165 3164 3163 3162 3162 3161 3160 3159 3158 3157 3156 3155 3154 3154 3153 3151 3150 3149 3148 3148 3147 3146 3145 3144 3143 3142 3141 3140 3139 3138 3137 3136 3135 3135 3133 3132 3131 3129 3128 3126 3125 3123 3121 3119 3117 3116 3114 3112 3111 3109 3108 3107 3105 3104 3102 3101 3099 3098 3097 3096 3095 3094 3094 3092 3091 3090 3088 3087 3085 3082 3079 3076 3074 3071 3067 3065 3064 3060 3053 3046 3041 3038 3033 3028 3022
3167 3166 3165 3164 3164 3163 3162 3161 3160 3159 3158 3157 3156 3155 3154 3153 3152 3151 3150 3149 3148 3148 3147 3145 3145 3144 3143 3142 3141 3140 3139 3138 3137 3136 3135 3134 3133 3131 3130 3129 3127 3125 3123 3122 3120 3118 3116 3114 3113 3111 3109 3108 3107 3105 3104 3103 3101 3100 3099 3097 3096 3095 3094 3094 3093 3091 3090 3089 3087 3085 3083 3081 3078 3076 3074 3069 3065 3063 3061 3056 3050 3044 3038 3033 3028 3023 3019
3167 3167 3166 3165 3164 3163 3162 3161 3160 3159 3158 3157 3156 3155 3154 3153 3152 3151 3150 3149 3148 3147 3146 3145 3144 3143 3142 3141 3140 3139 3139 3138 3137 3136 3135 3133 3132 3131 3129 3127 3126 3124 3122 3120 3118 3116 3114 3113 3111 3110 3108 3107 3106 3105 3103 3102 3100 3099 3098 3097 3096 3095 3094 3094 3093 3091 3089 3088 3086 3085 3082 3079 3075 3073 3070 3067 3065 3063 3058 3050 3044 3041 3035 3029 3024 3020 3015
3168 3167 3166 3165 3165 3163 3162 3161 3160 3159 3158 3157 3156 3155 3154 3153 3152 3151 3150 3149 3148 3147 3146 3145 3144 3143 3142 3141 3140 3139 3138 3137 3136 3135 3134 3133 3131 3130 3128 3126 3125 3123 3121 3119 3117 3115 3113 3111 3110 3108 3107 3105 3104 3103 3103 3101 3100 3099 3098 3097 3096 3095 3094 3094 3093 3091 3090 3089 3087 3086 3083 3078 3075 3073 3069 3065 3064 3060 3054 3046 3040 3035 3031 3025 3019 3015 3011
3169 3168 3167 3166 3165 3164 3163 3161 3160 3159 3158 3157 3156 3155 3154 3153 3152 3151 3150 3149 3148 3147 3146 3145 3144 3143 3142 3141 3140 3139 3138 3137 3136 3135 3133 3132 3131 3129 3127 3126 3124 3122 3120 3118 3115 3113 3111 3109 3108 3107 3105 3104 3103 3102 3101 3101 3100 3099 3098 3097 3097 3096 3095 3094 3094 3092 3091 3089 3086 3084 3080 3077 3075 3072 3067 3064 3061 3056 3050 3043 3036 3030 3026 3020 3014 3009 3004
3169 3168 3167 3166 3165 3164 3162 3161 3160 3159 3158 3157 3156 3155 3154 3153 3152 3151 3150 3149 3147 3146 3145 3144 3143 3142 3141 3140 3139 3138 3137 3136 3135 3134 3133 3131 3130 3128 3126 3124 3123 3120 3118 3116 3114 3111 3109 3108 3106 3105 3104 3103 3102 3101 3100 3100 3099 3098 3097 3097 3096 3095 3095 3094 3093 3091 3090 3088 3085 3081 3078 3074 3072 3069 3064 3060 3056 3049 3043 3037 3031 3026 3021 3016 3010 3004 2998
3169 3168 3167 3166 3164 3163 3162 3161 3160 3159 3158 3157 3156 3155 3154 3152 3151 3150 3149 3148 3147 3146 3145 3144 3143 3142 3141 3140 3138 3137 3136 3135 3134 3133 3132 3130 3128 3127 3125 3123 3121 3118 3116 3114 3111 3109 3107 3106 3104 3103 3102 3102 3101 3100 3099 3099 3099 3098 3097 3097 3096 3095 3094 3093 3091 3088 3086 3084 3081 3076 3072 3068 3065 3062 3058 3054 3048 3042 3036 3030 3025 3021 3016 3010 3005 2999 2993
3169 3168 3166 3165 3164 3163 3162 3161 3160 3158 3157 3156 3155 3154 3153 3152 3151 3150 3149 3148 3147 3145 3144 3143 3142 3141 3140 3139 3138 3137 3135 3134 3133 3132 3130 3129 3127 3125 3123 3121 3119 3116 3114 3111 3109 3107 3105 3104 3103 3102 3101 3101 3100 3099 3098 3098 3098 3097 3096 3096 3095 3093 3091 3089 3086 3084 3082 3079 3075 3070 3066 3063 3059 3055 3050 3045 3039 3034 3030 3026 3021 3015 3010 3005 3000 2995 2989
3168 3167 3166 3165 3164 3162 3161 3160 3159 3158 3157 3156 3155 3154 3153 3152 3151 3150 3148 3147 3146 3145 3144 3143 3142 3140 3139 3138 3137 3136 3135 3133 3132 3131 3129 3127 3125 3123 3121 3119 3116 3114 3111 3109 3107 3106 3104 3103 3102 3101 3100 3100 3099 3098 3098 3097 3097 3096 3095 3094 3093 3091 3088 3086 3082 3079 3077 3073 3068 3063 3058 3055 3052 3049 3045 3040 3034 3029 3025 3021 3016 3011 3006 3000 2996 2991 2986
3168 3167 3165 3164 3163 3162 3161 3159 3158 3157 3156 3155 3154 3153 3152 3151 3150 3149 3148 3147 3145 3144 3143 3142 3141 3140 3138 3137 3136 3135 3133 3132 3131 3129 3127 3125 3123 3121 3119 3116 3114 3111 3109 3108 3106 3104 3103 3102 3100 3099 3099 3099 3098 3098 3097 3097 3096 3095 3094 3093 3091 3088 3086 3083 3078 3074 3071 3068 3064 3058 3053 3049 3046 3044 3040 3036 3031 3026 3022 3017 3013 3007 3001 2995 2990 2986 2982
3168 3166 3165 3164 3162 3161 3160 3159 3158 3156 3155 3154 3153 3152 3151 3150 3149 3148 3147 3146 3145 3143 3142 3141 3140 3139 3137 3136 3135 3133 3132 3131 3129 3128 3126 3124 3121 3119 3117 3114 3112 3110 3108 3107 3105 3104 3102 3101 3100 3099 3098 3098 3098 3097 3096 3096 3095 3094 3093 3091 3089 3087 3084 3080 3076 3072 3069 3066 3062 3058 3053 3048 3044 3041 3037 3032 3028 3024 3019 3014 3009 3003 2997 2991 2985 2979 2975
3167 3166 3165 3163 3162 3161 3159 3158 3157 3156 3155 3154 3152 3151 3150 3149 3148 3147 3146 3145 3144 3142 3141 3140 3139 3137 3136 3135 3134 3132 3131 3129 3128 3126 3124 3122 3119 3117 3115 3113 3110 3109 3107 3106 3104 3103 3101 3100 3099 3099 3098 3098 3097 3096 3096 3095 3094 3093 3092 3090 3088 3086 3083 3080 3077 3072 3069 3065 3060 3056 3052 3047 3043 3039 3034 3029 3025 3020 3015 3010 3005 2999 2993 2987 2981 2974 2968
3168 3166 3165 3163 3162 3161 3159 3158 3157 3155 3154 3153 3152 3150 3149 3148 3147 3146 3145 3144 3143 3141 3140 3139 3137 3136 3135 3134 3132 3131 3129 3128 3126 3124 3122 3120 3118 3115 3113 3111 3109 3108 3107 3105 3104 3102 3101 3100 3099 3099 3098 3097 3097 3096 3095 3094 3093 3092 3090 3088 3086 3084 3081 3079 3075 3070 3067 3063 3058 3053 3049 3045 3040 3037 3032 3027 3021 3016 3011 3005 3000 2994 2989 2983 2977 2971 2966
3168 3166 3165 3163 3162 3160 3159 3158 3156 3155 3153 3152 3151 3150 3148 3147 3146 3145 3144 3143 3141 3140 3139 3138 3136 3135 3134 3133 3131 3130 3128 3126 3124 3122 3120 3118 3116 3114 3112 3110 3109 3107 3106 3104 3103 3102 3101 3100 3099 3098 3097 3097 3096 3095 3094 3093 3092 3091 3089 3087 3084 3081 3078 3075 3071 3067 3064 3059 3054 3050 3047 3041 3034 3029 3025 3020 3015 3010 3006 3001 2996 2990 2985 2979 2973 2967 2961
3168 3166 3165 3163 3162 3160 3159 3157 3156 3154 3153 3152 3150 3149 3148 3147 3145 3144 3143 3141 3140 3139 3138 3137 3135 3134 3133 3132 3130 3128 3127 3125 3123 3121 3119 3117 3115 3113 3111 3109 3108 3106 3105 3103 3102 3101 3101 3100 3099 3098 3097 3096 3095 3094 3093 3092 3090 3089 3086 3084 3081 3078 3074 3070 3066 3063 3060 3055 3048 3043 3041 3036 3030 3024 3019 3014 3010 3005 3001 2997 2992 2987 2981 2976 2971 2964 2957
3167 3166 3164 3163 3161 3160 3158 3157 3156 3154 3153 3151 3150 3149 3147 3146 3145 3143 3142 3141 3139 3138 3137 3136 3135 3133 3132 3131 3129 3127 3125 3123 3121 3119 3117 3115 3113 3112 3110 3109 3107 3105 3104 3103 3102 3101 3100 3099 3098 3097 3096 3095 3094 3093 3092 3091 3089 3087 3084 3081 3078 3074 3070 3066 3062 3058 3055 3050 3044 3037 3033 3030 3027 3022 3018 3013 3008 3003 2998 2993 2989 2984 2978 2972 2966 2960 2954
3167 3166 3164 3163 3161 3160 3158 3157 3155 3154 3153 3151 3150 3148 3147 3146 3144 3143 3141 3140 3139 3137 3136 3135 3134 3133 3131 3129 3128 3126 3124 3122 3120 3118 3116 3114 3113 3111 3110 3108 3106 3105 3104 3103 3101 3100 3099 3098 3097 3096 3095 3094 3093 3092 3091 3089 3087 3084 3081 3078 3073 3069 3066 3061 3057 3053 3049 3045 3041 3035 3030 3026 3022 3019 3015 3011 3006 3001 2995 2990 2984 2979 2974 2968 2961 2955 2949
3168 3166 3164 3163 3161 3160 3158 3157 3155 3154 3152 3151 3149 3148 3146 3145 3144 3142 3141 3139 3138 3137 3136 3134 3133 3132 3130 3128 3126 3125 3123 3121 3119 3117 3115 3114 3112 3111 3109 3107 3106 3104 3103 3102 3101 3100 3098 3097 3096 3095 3094 3093 3092 3090 3089 3086 3083 3080 3077 3073 3068 3064 3060 3056 3052 3049 3045 3041 3037 3033 3029 3024 3019 3014 3010 3006 3002 2997 2992 2986 2980 2974 2968 2963 2956 2950 2944
3168 3166 3164 3163 3162 3160 3159 3157 3155 3154 3152 3150 3149 3147 3146 3144 3143 3142 3140 3139 3137 3136 3135 3133 3132 3130 3129 3127 3125 3124 3122 3120 3118 3116 3115 3113 3112 3110 3108 3107 3105 3104 3103 3101 3100 3099 3098 3097 3095 3094 3093 3091 3090 3089 3087 3084 3080 3077 3073 3069 3065 3061 3057 3053 3049 3046 3043 3039 3035 3031 3026 3022 3017 3011 3006 3001 2997 2992 2986 2981 2976 2970 2963 2957 2950 2944 2938
3168 3166 3165 3163 3162 3160 3158 3157 3155 3153 3151 3150 3148 3146 3145 3144 3142 3141 3139 3138 3137 3135 3134 3132 3131 3129 3127 3126 3124 3122 3121 3119 3117 3116 3114 3112 3111 3109 3107 3106 3104 3103 3102 3101 3099 3098 3097 3096 3094 3093 3091 3090 3089 3088 3085 3082 3078 3074 3070 3066 3063 3059 3055 3051 3048 3044 3041 3037 3033 3029 3024 3018 3013 3007 3001 2995 2991 2986 2980 2975 2969 2963 2957 2951 2944 2938 2933
3168 3167 3165 3163 3162 3160 3158 3156 3154 3152 3151 3149 3147 3145 3144 3143 3141 3140 3139 3137 3136 3134 3133 3131 3130 3128 3127 3125 3123 3121 3120 3118 3116 3115 3113 3112 3110 3108 3107 3105 3104 3102 3101 3100 3099 3098 3096 3094 3093 3091 3090 3089 3088 3086 3083 3079 3076 3072 3068 3064 3061 3057 3053 3049 3045 3040 3036 3032 3028 3024 3019 3014 3009 3004 2998 2992 2986 2981 2976 2971 2966 2960 2954 2948 2941 2935 2929
3168 3167 3165 3163 3161 3159 3157 3155 3153 3152 3150 3148 3146 3145 3143 3142 3141 3139 3138 3136 3135 3133 3132 3131 3129 3128 3126 3124 3122 3121 3119 3117 3116 3114 3112 3111 3109 3108 3106 3105 3103 3102 3101 3099 3098 3097 3095 3094 3092 3090 3089 3088 3087 3084 3080 3077 3074 3070 3066 3062 3058 3055 3051 3046 3042 3037 3032 3028 3023 3019 3014 3010 3005 3000 2995 2989 2984 2979 2973 2968 2963 2957 2951 2945 2939 2933 2927
3168 3166 3165 3163 3161 3159 3156 3155 3153 3151 3149 3147 3146 3144 3143 3141 3140 3138 3137 3135 3134 3133 3131 3130 3128 3127 3125 3124 3122 3120 3118 3117 3115 3113 3112 3110 3109 3107 3106 3104 3103 3101 3100 3099 3098 3096 3095 3093 3091 3090 3088 3087 3085 3081 3077 3074 3072 3068 3064 3059 3055 3051 3047 3043 3039 3034 3030 3026 3022 3017 3012 3007 3002 2997 2992 2986 2981 2976 2970 2964 2959 2954 2948 2942 2936 2930 2923
3168 3166 3164 3162 3160 3158 3156 3154 3152 3150 3148 3147 3145 3144 3142 3141 3139 3138 3136 3135 3134 3132 3131 3130 3128 3126 3125 3123 3121 3119 3118 3116 3114 3113 3111 3110 3108 3107 3105 3104 3102 3101 3100 3099 3097 3096 3094 3092 3091 3089 3087 3085 3082 3078 3074 3072 3069 3065 3060 3056 3052 3048 3044 3040 3036 3032 3028 3023 3019 3014 3009 3005 3000 2995 2989 2984 2978 2972 2966 2961 2956 2951 2945 2939 2933 2927 2920
3168 3166 3164 3161 3159 3157 3155 3153 3151 3149 3148 3146 3145 3143 3142 3140 3138 3137 3136 3135 3134 3132 3131 3129 3128 3126 3124 3122 3120 3119 3117 3115 3114 3112 3111 3109 3108 3106 3105 3103 3102 3101 3100 3098 3097 3095 3093 3092 3090 3087 3085 3083 3079 3075 3071 3069 3065 3061 3057 3053 3049 3045 3041 3037 3033 3029 3025 3020 3016 3012 3007 3002 2997 2992 2986 2980 2975 2970 2964 2958 2953 2948 2942 2936 2930 2924 2918
3168 3166 3163 3161 3159 3157 3155 3153 3151 3149 3147 3146 3144 3143 3141 3139 3138 3137 3136 3134 3133 3132 3130 3129 3127 3125 3123 3121 3119 3118 3116 3115 3113 3112 3110 3109 3107 3106 3104 3103 3102 3100 3099 3098 3096 3094 3092 3090 3087 3085 3083 3080 3076 3072 3068 3065 3062 3058 3054 3050 3046 3042 3038 3034 3030 3026 3022 3018 3013 3008 3004 2999 2994 2989 2983 2978 2972 2967 2962 2956 2950 2944 2939 2933 2927 2921 2915
3168 3166 3163 3161 3158 3156 3154 3152 3150 3148 3147 3145 3144 3142 3141 3139 3138 3137 3136 3134 3133 3132 3130 3128 3126 3124 3122 3120 3119 3117 3115 3114 3113 3111 3110 3108 3107 3105 3104 3102 3101 3100 3098 3096 3095 3093 3090 3088 3085 3083 3080 3077 3073 3069 3065 3062 3058 3055 3051 3047 3043 3039 3036 3032 3028 3024 3019 3015 3010 3005 3001 2996 2990 2985 2980 2975 2969 2964 2959 2953 2947 2941 2936 2930 2924 2918 2913
3167 3165 3162 3160 3158 3155 3153 3151 3149 3147 3146 3144 3143 3141 3140 3139 3138 3137 3136 3134 3133 3131 3130 3128 3126 3124 3122 3120 3118 3116 3115 3114 3112 3111 3109 3108 3106 3105 3104 3102 3100 3098 3097 3095 3093 3090 3088 3085 3082 3079 3076 3073 3069 3066 3062 3059 3055 3051 3048 3044 3040 3037 3033 3030 3025 3021 3016 3011 3007 3002 2997 2992 2987 2982 2977 2971 2966 2960 2955 2949 2944 2938 2933 2928 2922 2916 2910
3167 3164 3162 3159 3157 3155 3152 3150 3149 3147 3145 3144 3142 3141 3140 3139 3138 3136 3135 3134 3132 3130 3129 3127 3125 3123 3121 3119 3118 3116 3115 3113 3112 3110 3109 3107 3106 3104 3103 3101 3099 3097 3095 3093 3091 3088 3085 3082 3080 3077 3074 3070 3067 3063 3059 3056 3052 3049 3045 3041 3037 3033 3030 3026 3022 3018 3013 3008 3003 2999 2994 2989 2984 2979 2974 2968 2963 2957 2952 2946 2941 2936 2931 2925 2919 2913 2907
3166 3164 3161 3159 3156 3154 3152 3150 3148 3147 3145 3143 3142 3141 3140 3138 3137 3136 3134 3133 3131 3130 3128 3126 3124 3122 3120 3119 3117 3116 3114 3113 3111 3110 3109 3107 3105 3104 3102 3100 3098 3096 3094 3091 3088 3085 3082 3080 3078 3075 3072 3068 3064 3060 3057 3053 3050 3047 3043 3039 3034 3030 3027 3023 3019 3014 3010 3005 3000 2996 2991 2986 2981 2976 2971 2965 2960 2955 2949 2944 2939 2934 2928 2922 2917 2911 2906
3166 3163 3161 3158 3156 3154 3152 3150 3148 3146 3144 3143 3142 3140 3139 3138 3137 3135 3134 3132 3130 3129 3127 3125 3123 3121 3120 3118 3117 3115 3114 3113 3111 3110 3108 3106 3105 3103 3101 3099 3097 3095 3093 3090 3087 3084 3081 3078 3075 3072 3069 3065 3062 3058 3054 3051 3047 3044 3040 3036 3031 3027 3024 3020 3016 3012 3007 3002 2997 2993 2988 2984 2978 2973 2968 2963 2958 2953 2947 2941 2936 2931 2926 2921 2915 2910 2904
3165 3162 3160 3157 3155 3153 3151 3149 3147 3145 3144 3142 3141 3140 3139 3137 3136 3134 3133 3131 3129 3127 3126 3124 3122 3121 3119 3118 3116 3115 3113 3112 3111 3109 3108 3106 3104 3102 3101 3098 3096 3094 3091 3088 3085 3081 3078 3075 3073 3070 3067 3064 3060 3056 3052 3048 3044 3041 3037 3033 3029 3025 3021 3017 3013 3009 3004 2999 2995 2990 2985 2981 2976 2971 2966 2960 2955 2950 2944 2939 2934 2929 2925 2919 2914 2908 2902
3164 3161 3159 3156 3154 3152 3150 3148 3146 3144 3143 3142 3140 3139 3137 3136 3135 3133 3132 3130 3128 3126 3125 3123 3121 3120 3118 3117 3116 3114 3113 3112 3110 3108 3107 3105 3103 3101 3100 3097 3095 3092 3089 3086 3083 3079 3076 3073 3070 3068 3065 3061 3057 3053 3049 3045 3042 3038 3034 3030 3026 3022 3018 3015 3011 3007 3002 2997 2992 2988 2983 2978 2974 2968 2963 2958 2953 2948 2943 2938 2933 2927 2922 2917 2911 2905 2898
3162 3160 3157 3155 3153 3150 3148 3147 3145 3144 3142 3141 3139 3138 3136 3135 3134 3132 3131 3129 3127 3125 3124 3122 3121 3119 3118 3116 3115 3114 3112 3111 3109 3107 3106 3104 3102 3100 3098 3096 3094 3091 3088 3084 3081 3077 3074 3071 3068 3065 3062 3058 3054 3050 3047 3043 3039 3035 3032 3028 3024 3020 3016 3012 3008 3004 2999 2995 2990 2985 2981 2976 2971 2966 2961 2955 2950 2946 2942 2937 2930 2924 2918 2913 2908 2902 2896
3161 3158 3156 3154 3151 3149 3147 3146 3144 3142 3141 3140 3138 3137 3135 3134 3133 3131 3129 3128 3126 3124 3123 3121 3120 3118 3117 3116 3114 3113 3112 3110 3108 3106 3105 3103 3101 3099 3097 3095 3092 3088 3085 3082 3079 3075 3072 3069 3066 3062 3058 3055 3052 3048 3044 3040 3037 3033 3029 3025 3022 3018 3013 3009 3005 3001 2997 2993 2988 2983 2978 2973 2969 2964 2958 2953 2948 2943 2938 2933 2927 2921 2916 2911 2907 2902 2896